DAURIA DX 1 (40071 NORAD) Tracking and Keplerian Element Data

This shows tracking and keplerian element data for the satellite.

Feedback or suggestion? Click here.




ElementValue
Catalog40071
NameDAURIA DX 1
Epoch Orbit25823
Epoch Day108.75924363
Epoch Year2019
RAAN259.5653
Inclination98.4158
Eccentricity0.0009829
Argument of Perigee65.0584
Mean Anonmoly295.1653
Mean Motion14.81253424
Decay Rate1.39E-06
L11 40071U 14037C 19108.75924363 .00000139 00000-0 25335-4 0 9990
L22 40071 98.4158 259.5653 0009829 65.0584 295.1653 14.81253424258235

Live tracking and technical data element details for DAURIA DX 1 (NORAD 40071). DAURIA DX 1 can be tracked NOW for your location showing map with azimuth and elevation plus other details from your city location.

Track the satellite on the map from your city or location and see movement details for azimuth, elevation, latitude, longitude, range, height, and movement on the map or in text.







IsCatalogInMostPopularTable: catalog: 40071, numindb: 179
Update: records affected: 1



GetName: 40071 DAURIA DX 1

Hit Count: updated at: Wed, 24 Apr 2019 18:03:10 GMT